Simultaneous Nadir Overpasses (SNOs) Predictions

Prediction of SNOs between GOES-16 and LANDSAT-8 Satellite Orbit:

Table of predicted SNOs for the next 14.0 days since TLE Epoch: 7/2/2022
Index Date Time (GOES-16) GOES-16 Lat,Lon LANDSAT-8 Lat,Lon Distance(km) Time Diff (sec)
1 07/02/2022 15:12:50 0.01, -75.21 0.03, -75.41 22.47 80
2 07/04/2022 15:03:19 -0.00, -75.23 -0.61, -72.46 315.42 80
3 07/05/2022 03:22:03 0.00, -75.22 -0.51, -77.64 275.68 80
4 07/07/2022 03:12:32 0.00, -75.24 0.14, -74.69 63.17 80
5 07/09/2022 03:00:20 -0.01, -75.26 0.74, -71.72 402.43 80
6 07/09/2022 15:18:56 0.01, -75.28 0.33, -76.89 181.87 80
7 07/11/2022 15:06:44 0.02, -75.30 -0.27, -73.92 157.27 80
8 07/12/2022 03:30:48 -0.01, -75.30 -0.84, -79.11 433.52 80
9 07/13/2022 14:54:33 0.01, -75.33 -0.94, -70.97 496.32 80
10 07/14/2022 03:18:37 -0.01, -75.32 -0.17, -76.16 94.31 80
